Satellite-Ground Cal/Val Region Overpasses Predictions

Prediction of Satellite NPP Overpassing Cal/Val Region: PacNW

Region Location: (Latitude: 10.00, Longitude: 139.50) to (Latitude: 22.70, Longitude: 165.60).

Table of predicted overpasses for the next 14.0 days since TLE Epoch: 5/1/2021
Interval Starting Time Starting Location Ending Time Ending Location
1 05/01/2021 03:16:36 ( 10.05, 150.46) 05/01/2021 03:20:11 ( 22.67, 147.46)
2 05/01/2021 15:48:29 ( 22.68, 147.71) 05/01/2021 15:52:05 ( 10.00, 144.69)
3 05/02/2021 02:57:34 ( 10.02, 155.22) 05/02/2021 03:01:09 ( 22.65, 152.22)
4 05/02/2021 15:29:28 ( 22.65, 152.46) 05/02/2021 15:33:03 ( 10.03, 149.45)
5 05/03/2021 02:38:34 ( 10.06, 159.97) 05/03/2021 02:42:09 ( 22.68, 156.97)
6 05/03/2021 15:10:27 ( 22.68, 157.22) 05/03/2021 15:14:03 ( 10.00, 154.20)
7 05/04/2021 02:19:32 ( 10.03, 164.73) 05/04/2021 02:23:07 ( 22.65, 161.73)
8 05/04/2021 14:51:26 ( 22.65, 161.96) 05/04/2021 14:55:01 ( 10.03, 158.96)
9 05/05/2021 03:42:01 ( 10.00, 144.12) 05/05/2021 03:45:37 ( 22.68, 141.10)
10 05/05/2021 14:33:44 ( 18.04, 165.59) 05/05/2021 14:36:00 ( 10.06, 163.72)
11 05/05/2021 16:13:55 ( 22.67, 141.35) 05/05/2021 16:16:05 ( 15.05, 139.50)
12 05/06/2021 03:23:00 ( 10.03, 148.87) 05/06/2021 03:26:35 ( 22.66, 145.86)
13 05/06/2021 15:54:53 ( 22.70, 146.11) 05/06/2021 15:58:29 ( 10.02, 143.09)
14 05/07/2021 03:03:59 ( 10.01, 153.63) 05/07/2021 03:07:35 ( 22.69, 150.61)
15 05/07/2021 15:35:53 ( 22.67, 150.86) 05/07/2021 15:39:28 ( 10.05, 147.85)
16 05/08/2021 02:44:59 ( 10.04, 158.37) 05/08/2021 02:48:34 ( 22.66, 155.37)
17 05/08/2021 15:16:51 ( 22.69, 155.62) 05/08/2021 15:20:27 ( 10.02, 152.60)
18 05/09/2021 02:25:57 ( 10.02, 163.13) 05/09/2021 02:29:33 ( 22.70, 160.12)
19 05/09/2021 14:57:51 ( 22.66, 160.37) 05/09/2021 15:01:26 ( 10.04, 157.36)
20 05/10/2021 02:09:43 ( 19.80, 165.59) 05/10/2021 02:10:32 ( 22.67, 164.88)
21 05/10/2021 03:48:27 ( 10.05, 142.51) 05/10/2021 03:52:02 ( 22.68, 139.50)
22 05/10/2021 14:38:49 ( 22.69, 165.13) 05/10/2021 14:42:25 ( 10.01, 162.11)
23 05/10/2021 16:20:19 ( 22.68, 139.75) 05/10/2021 16:20:36 ( 21.69, 139.50)
24 05/11/2021 03:29:25 ( 10.03, 147.27) 05/11/2021 03:33:00 ( 22.65, 144.26)
25 05/11/2021 16:01:19 ( 22.65, 144.50) 05/11/2021 16:04:54 ( 10.03, 141.49)
26 05/12/2021 03:10:24 ( 10.01, 152.03) 05/12/2021 03:14:00 ( 22.69, 149.01)
27 05/12/2021 15:42:17 ( 22.67, 149.26) 05/12/2021 15:45:52 ( 10.05, 146.25)
28 05/13/2021 02:51:23 ( 10.04, 156.77) 05/13/2021 02:54:58 ( 22.66, 153.77)
29 05/13/2021 15:23:16 ( 22.70, 154.02) 05/13/2021 15:26:52 ( 10.02, 151.00)
30 05/14/2021 02:32:22 ( 10.02, 161.53) 05/14/2021 02:35:57 ( 22.64, 158.53)
